Simultaneous Nadir Overpasses (SNOs) Predictions

Prediction of SNOs between GOES-16 and NOAA-19 Satellite Orbit:

Table of predicted SNOs for the next 14.0 days since TLE Epoch: 5/17/2019
Index Date Time (GOES-16) GOES-16 Lat,Lon NOAA-19 Lat,Lon Distance(km) Time Diff (sec)
1 05/18/2019 09:54:35 -0.00, -75.19 0.01, -75.33 16.26 80
2 05/19/2019 09:40:18 -0.00, -75.18 -0.62, -72.49 307.29 80
3 05/21/2019 22:01:36 0.00, -75.16 -0.57, -77.53 271.12 80
4 05/22/2019 21:52:40 0.00, -75.16 0.13, -74.70 52.75 80
5 05/23/2019 21:41:02 0.01, -75.16 0.77, -71.86 376.71 80
6 05/26/2019 10:02:02 -0.01, -75.19 0.38, -76.83 187.77 80
7 05/27/2019 09:47:46 -0.01, -75.20 -0.31, -74.00 136.87 80
8 05/28/2019 09:36:08 -0.01, -75.20 -0.96, -71.16 461.59 80
9 05/29/2019 22:11:45 0.01, -75.20 -0.86, -79.05 438.38 80
10 05/30/2019 22:00:07 0.01, -75.21 -0.21, -76.21 113.25 80




NCC Satellite Simultaneous Nadir Overpasses (SNOs) Prediction Service
